Notices

What's New in latest Release from April 7th, 2021:

- Updated Glossary, including Speed of Maximum Gust, and Total Hourly Precipitation

- Updated national and regional climate services offices contacts and prices information

- Addition of station inventory lists for 1981-2010, 1971-2000, and 1961-1990 Normals.

If you haven't already, please take our survey and provide feedback about our website: https://eccc.sondage-survey.ca/f/LanguageSelection.aspx?s=442ca660-fcf1-47c0-95a9-59707d6fd709

Hourly Data Report for April 08, 2019

MIRAMICHI RCS
NEW BRUNSWICK
Current Station Operator: ECCC - MSC

47°00'34.000" N
65°27'54.000" W
33.00 m
8100989
71744
ACQ

Download Data

Hourly Data (April 2019)
Hourly Data Report for April 8, 2019
TIME
LST
Temp Definition
°C
Dew Point Definition
°C
Rel Hum Definition
%
Precip. Amount Definition
mm

Wind Dir Definition
10's deg

Wind Spd Definition
km/h
Visibility Definition
km
Stn Press Definition
kPa
Hmdx Definition


Wind Chill Definition


Weather Definition


00:00 -5.2 -15.2 46 0.0 26 5   102.00   -7 LegendNANA
01:00 -6.7 -14.2 55 0.0 31 3   102.06   -8 LegendNANA
02:00 -7.2 -14.0 58 0.0 29 3   102.08   -9 LegendNANA
03:00 -7.7 -14.7 57 0.0 30 5   102.07   -10 LegendNANA
04:00 -7.8 -15.3 55 0.0 31 6   102.08   -11 LegendNANA
05:00 -6.8 -16.0 48 0.0 33 6   102.09   -10 LegendNANA
06:00 -6.8 -15.7 49 0.0 34 7   102.12   -10 LegendNANA
07:00 -6.4 -15.0 50 0.0 1 8   102.12   -10 LegendNANA
08:00 -4.8 -14.3 48 0.0 3 8   102.12   -8 LegendNANA
09:00 -4.3 -14.0 47 0.0 6 10   102.10   -8 LegendNANA
10:00 -3.3 -13.7 44 0.0 12 7   102.04   -6 LegendNANA
11:00 -2.0 -13.4 41 0.0 9 6   101.98   -4 LegendNANA
12:00 -1.1 -11.7 44 0.0 11 5   101.88   -3 LegendNANA
13:00 0.2 -14.3 33 0.0 8 1   101.79     LegendNANA
14:00 0.1 -13.2 36 0.0 8 7   101.65     LegendNANA
15:00 -1.4 -10.1 52 0.0 7 19   101.56   -7 LegendNANA
16:00 -1.6 -9.4 55 0.0 11 16   101.48   -7 LegendNANA
17:00 -2.5 -9.6 58 0.0 11 20   101.45   -8 LegendNANA
18:00 -3.0 -9.3 62 0.0 10 17   101.40   -9 LegendNANA
19:00 -3.1 -10.8 55 0.0 12 13   101.35   -8 LegendNANA
20:00 -3.6 -9.3 64 0.0 13 14   101.32   -9 LegendNANA
21:00 -4.0 -7.7 76 0.0 13 8   101.28   -7 LegendNANA
22:00 -4.6 -6.3 88 0.2 9 5   101.26   -7 LegendNANA
23:00 -4.8 -6.1 90 1.2 8 11   101.16   -9 LegendNANA

Notes on Data Quality.

Legend

  • E = Estimated
  • M = Missing
  • NA = Not Available*
  • [empty] = Indicates an unobserved value
Date modified: